| time (UTC) | temp F | wind direction | speed MPH | gust MPH | rain 1hr in | rain 24hr in | rain mn in | humidity % | barometer mb |
| 20260510082928 | 73 | 153 | 0.0 | 0.0 | 0.00 | 1.07 | 0.00 | 96 | 1010.5 |
| 20260510082427 | 73 | 153 | 0.0 | 0.0 | 0.00 | 1.07 | 0.00 | 96 | 1010.4 |
| 20260510081927 | 73 | 153 | 0.0 | 0.0 | 0.00 | 1.07 | 0.00 | 96 | 1010.4 |
| 20260510081427 | 73 | 153 | 0.0 | 0.0 | 0.00 | 1.07 | 0.00 | 96 | 1010.3 |
| 20260510080927 | 73 | 153 | 0.0 | 0.0 | 0.00 | 1.07 | 0.00 | 96 | 1010.4 |
| 20260510080427 | 73 | 153 | 0.0 | 0.0 | 0.00 | 1.07 | 0.00 | 96 | 1010.3 |
| 20260510075928 | 72 | 153 | 0.0 | 0.0 | 0.00 | 1.07 | 0.00 | 96 | 1010.5 |
| 20260510075427 | 72 | 153 | 0.0 | 0.0 | 0.00 | 1.07 | 0.00 | 96 | 1010.4 |
| 20260510074927 | 72 | 153 | 0.0 | 0.0 | 0.00 | 1.07 | 0.00 | 96 | 1010.4 |
| 20260510074430 | 72 | 153 | 0.0 | 0.0 | 0.00 | 1.07 | 0.00 | 95 | 1010.5 |
| 20260510073930 | 73 | 153 | 0.0 | 0.0 | 0.00 | 1.07 | 0.00 | 95 | 1010.6 |
| 20260510073427 | 73 | 153 | 0.0 | 0.0 | 0.00 | 1.07 | 0.00 | 95 | 1010.7 |
| 20260510072928 | 73 | 153 | 0.0 | 0.0 | 0.00 | 1.07 | 0.00 | 95 | 1010.6 |
| 20260510072427 | 73 | 153 | 0.0 | 0.0 | 0.00 | 1.07 | 0.00 | 95 | 1010.7 |
| 20260510071927 | 73 | 153 | 0.0 | 0.0 | 0.00 | 1.07 | 0.00 | 95 | 1010.7 |
| 20260510071427 | 73 | 153 | 0.0 | 0.0 | 0.00 | 1.07 | 0.00 | 95 | 1010.8 |
| 20260510070927 | 73 | 153 | 0.0 | 0.0 | 0.00 | 1.07 | 0.00 | 95 | 1010.8 |
| 20260510070430 | 73 | 153 | 0.0 | 0.0 | 0.00 | 1.07 | 0.00 | 95 | 1010.7 |
| 20260510065928 | 73 | 153 | 0.0 | 0.0 | 0.00 | 1.07 | 0.00 | 95 | 1010.8 |
| 20260510065427 | 73 | 153 | 0.0 | 0.0 | 0.00 | 1.07 | 0.00 | 95 | 1010.8 |
| 20260510064927 | 73 | 153 | 0.0 | 0.0 | 0.00 | 1.07 | 0.00 | 95 | 1010.7 |
| 20260510064427 | 73 | 153 | 0.0 | 0.0 | 0.00 | 1.07 | 0.00 | 95 | 1010.8 |
| 20260510063927 | 73 | 153 | 0.0 | 0.0 | 0.00 | 1.07 | 0.00 | 95 | 1010.7 |
| 20260510063427 | 73 | 153 | 0.0 | 0.0 | 0.00 | 1.07 | 0.00 | 95 | 1010.7 |
| 20260510062928 | 73 | 153 | 0.0 | 0.0 | 0.00 | 1.07 | 0.00 | 95 | 1010.7 |
| 20260510062430 | 73 | 153 | 0.0 | 0.0 | 0.00 | 1.07 | 0.00 | 95 | 1010.7 |
| 20260510061927 | 73 | 153 | 0.0 | 0.0 | 0.00 | 1.07 | 0.00 | 95 | 1010.7 |
| 20260510061427 | 73 | 153 | 0.0 | 0.0 | 0.00 | 1.07 | 0.00 | 95 | 1010.8 |
| 20260510060927 | 73 | 153 | 0.0 | 0.0 | 0.00 | 1.07 | 0.00 | 95 | 1010.8 |
| 20260510060427 | 73 | 153 | 0.0 | 0.0 | 0.00 | 1.07 | 0.00 | 95 | 1010.8 |
| 20260510055928 | 73 | 153 | 0.0 | 0.0 | 0.00 | 1.07 | 0.00 | 95 | 1010.9 |
| 20260510055427 | 73 | 153 | 0.0 | 0.0 | 0.00 | 1.07 | 0.00 | 95 | 1010.8 |
| 20260510054927 | 73 | 153 | 0.0 | 0.0 | 0.00 | 1.07 | 0.00 | 95 | 1010.8 |
| 20260510054427 | 73 | 153 | 0.0 | 0.0 | 0.00 | 1.07 | 0.00 | 95 | 1010.9 |
| 20260510053927 | 73 | 153 | 0.0 | 1.0 | 0.00 | 1.07 | 0.00 | 95 | 1010.9 |
| 20260510053427 | 73 | 171 | 0.0 | 0.0 | 0.00 | 1.07 | 0.00 | 95 | 1010.9 |
| 20260510052928 | 73 | 171 | 0.0 | 0.0 | 0.00 | 1.07 | 0.00 | 95 | 1010.8 |
| 20260510052427 | 73 | 171 | 0.0 | 0.0 | 0.00 | 1.07 | 0.00 | 95 | 1011.1 |
| 20260510051927 | 73 | 171 | 0.0 | 0.0 | 0.00 | 1.07 | 0.00 | 95 | 1011.1 |
| 20260510051427 | 73 | 171 | 0.0 | 0.0 | 0.00 | 1.07 | 0.00 | 95 | 1010.9 |
| 20260510050930 | 73 | 171 | 0.0 | 0.0 | 0.00 | 1.07 | 0.00 | 95 | 1011.0 |
| 20260510050427 | 73 | 171 | 0.0 | 1.0 | 0.00 | 1.07 | 0.00 | 94 | 1011.1 |
| 20260510045931 | 73 | 171 | 0.0 | 1.0 | 0.00 | 1.07 | 0.00 | 94 | 1011.1 |
| 20260510045427 | 73 | 171 | 0.0 | 0.0 | 0.00 | 1.07 | 0.00 | 94 | 1011.1 |
| 20260510044930 | 73 | 171 | 0.0 | 1.0 | 0.00 | 1.07 | 0.00 | 94 | 1011.1 |
| 20260510044427 | 73 | 171 | 0.0 | 0.0 | 0.00 | 1.07 | 0.00 | 94 | 1011.1 |
| 20260510043927 | 73 | 171 | 0.0 | 0.0 | 0.00 | 1.07 | 0.00 | 95 | 1011.1 |
| 20260510043427 | 73 | 171 | 0.0 | 0.0 | 0.00 | 1.07 | 0.00 | 94 | 1011.2 |
| 20260510042928 | 73 | 171 | 0.0 | 0.0 | 0.00 | 1.07 | 0.00 | 94 | 1011.2 |
| 20260510042427 | 73 | 171 | 0.0 | 1.0 | 0.00 | 1.07 | 0.00 | 94 | 1011.1 |
| 20260510041927 | 73 | 171 | 0.0 | 0.0 | 0.00 | 1.07 | 0.00 | 94 | 1011.2 |
| 20260510041427 | 73 | 171 | 0.0 | 0.0 | 0.00 | 1.07 | 0.00 | 94 | 1011.2 |
| 20260510040927 | 73 | 171 | 0.0 | 1.0 | 0.00 | 1.07 | 0.00 | 94 | 1011.1 |
| 20260510040427 | 73 | 171 | 0.0 | 0.0 | 0.00 | 1.07 | 0.00 | 93 | 1011.0 |
| 20260510035928 | 73 | 171 | 0.0 | 0.0 | 0.00 | 1.07 | 0.00 | 93 | 1011.1 |
| 20260510035427 | 73 | 171 | 0.0 | 0.0 | 0.00 | 1.07 | 0.00 | 92 | 1011.3 |
| 20260510034927 | 73 | 171 | 0.0 | 0.0 | 0.00 | 1.07 | 0.00 | 92 | 1011.3 |
| 20260510034427 | 73 | 171 | 0.0 | 0.0 | 0.00 | 1.07 | 0.00 | 92 | 1011.3 |
| 20260510033927 | 74 | 171 | 0.0 | 1.0 | 0.00 | 1.07 | 0.00 | 92 | 1011.3 |
| 20260510033428 | 74 | 171 | 0.0 | 1.0 | 0.00 | 1.07 | 0.00 | 92 | 1011.3 |
| 20260510032927 | 74 | 171 | 0.0 | 2.0 | 0.00 | 1.07 | 0.00 | 92 | 1011.3 |
| 20260510032427 | 75 | 171 | 0.0 | 2.0 | 0.00 | 1.07 | 0.00 | 93 | 1011.4 |
| 20260510031930 | 75 | 184 | 0.0 | 1.0 | 0.00 | 1.07 | 0.00 | 95 | 1011.4 |
| 20260510031430 | 75 | 184 | 0.0 | 2.0 | 0.00 | 1.07 | 0.00 | 95 | 1011.4 |
| 20260510030927 | 75 | 184 | 1.0 | 2.0 | 0.00 | 1.07 | 0.00 | 96 | 1011.3 |
| 20260510030427 | 75 | 153 | 0.0 | 1.0 | 0.00 | 1.07 | 0.00 | 96 | 1011.3 |
| 20260510025928 | 75 | 153 | 0.0 | 1.0 | 0.00 | 1.07 | 0.00 | 96 | 1011.1 |
| 20260510025427 | 75 | 131 | 0.0 | 4.0 | 0.00 | 1.07 | 0.00 | 96 | 1010.8 |
| 20260510024927 | 74 | 159 | 1.0 | 4.0 | 0.00 | 1.07 | 0.00 | 96 | 1010.7 |
| 20260510024427 | 73 | 157 | 1.0 | 2.0 | 0.00 | 1.07 | 0.00 | 96 | 1010.5 |
| 20260510023928 | 73 | 131 | 1.0 | 2.0 | 0.00 | 1.07 | 0.00 | 96 | 1010.4 |
| 20260510023427 | 72 | 338 | 0.0 | 0.0 | 0.00 | 1.07 | 0.00 | 96 | 1010.1 |
| 20260510022927 | 72 | 338 | 0.0 | 0.0 | 0.00 | 1.07 | 0.00 | 96 | 1010.0 |
| 20260510022427 | 72 | 338 | 0.0 | 0.0 | 0.00 | 1.07 | 0.00 | 95 | 1009.8 |
| 20260510021927 | 71 | 338 | 0.0 | 0.0 | 0.00 | 1.07 | 0.00 | 95 | 1009.5 |
| 20260510021427 | 71 | 338 | 0.0 | 0.0 | 0.01 | 1.07 | 0.00 | 95 | 1009.4 |
| 20260510020930 | 71 | 338 | 0.0 | 0.0 | 0.15 | 1.07 | 0.00 | 95 | 1009.4 |
| 20260510020427 | 71 | 338 | 0.0 | 0.0 | 0.24 | 1.07 | 0.00 | 95 | 1009.2 |
| 20260510015928 | 71 | 338 | 0.0 | 0.0 | 0.39 | 1.07 | 0.00 | 94 | 1009.0 |
| 20260510015427 | 71 | 338 | 0.0 | 0.0 | 0.74 | 1.07 | 0.00 | 94 | 1008.9 |
| 20260510014928 | 71 | 338 | 0.0 | 0.0 | 0.83 | 1.07 | 0.00 | 93 | 1008.8 |
| 20260510014427 | 70 | 338 | 0.0 | 0.0 | 0.92 | 1.07 | 0.00 | 93 | 1008.7 |
| 20260510013930 | 70 | 338 | 0.0 | 0.0 | 1.00 | 1.07 | 0.00 | 93 | 1008.7 |
| 20260510013427 | 70 | 338 | 0.0 | 0.0 | 1.04 | 1.07 | 0.00 | 92 | 1008.6 |
| 20260510012928 | 70 | 338 | 0.0 | 1.0 | 1.07 | 1.07 | 0.00 | 92 | 1008.5 |
| 20260510012427 | 70 | 338 | 0.0 | 0.0 | 1.07 | 1.07 | 0.00 | 90 | 1008.5 |
| 20260510011928 | 71 | 338 | 0.0 | 2.0 | 1.07 | 1.07 | 0.00 | 89 | 1008.7 |
| 20260510011427 | 71 | 344 | 0.0 | 2.0 | 1.06 | 1.06 | 0.00 | 88 | 1008.7 |
| 20260510010927 | 72 | 343 | 2.0 | 3.0 | 0.92 | 0.92 | 0.00 | 85 | 1009.1 |
| 20260510010430 | 73 | 144 | 1.0 | 2.0 | 0.83 | 0.83 | 0.00 | 84 | 1008.8 |
| 20260510005931 | 75 | 257 | 1.0 | 3.0 | 0.67 | 0.67 | 0.00 | 82 | 1009.7 |
| 20260510005427 | 77 | 22 | 2.0 | 4.0 | 0.33 | 0.33 | 0.00 | 78 | 1009.5 |
| 20260510004930 | 79 | 351 | 1.0 | 4.0 | 0.24 | 0.24 | 0.00 | 79 | 1009.0 |
| 20260510004427 | 81 | 260 | 1.0 | 2.0 | 0.14 | 0.14 | 0.00 | 76 | 1009.0 |
| 20260510003927 | 83 | 259 | 0.0 | 3.0 | 0.07 | 0.07 | 0.00 | 73 | 1008.4 |
| 20260510003427 | 85 | 267 | 2.0 | 2.0 | 0.03 | 0.03 | 0.00 | 74 | 1007.9 |
| 20260510002928 | 85 | 268 | 0.0 | 0.0 | 0.00 | 0.00 | 0.00 | 71 | 1007.7 |
| 20260510002427 | 85 | 268 | 0.0 | 0.0 | 0.00 | 0.00 | 0.00 | 70 | 1007.7 |
| 20260510001927 | 86 | 268 | 0.0 | 1.0 | 0.00 | 0.00 | 0.00 | 70 | 1007.6 |
| 20260510001427 | 86 | 268 | 0.0 | 0.0 | 0.00 | 0.00 | 0.00 | 72 | 1007.6 |
| 20260510000930 | 86 | 268 | 0.0 | 0.0 | 0.00 | 0.00 | 0.00 | 74 | 1007.5 |
| 20260510000427 | 86 | 268 | 0.0 | 0.0 | 0.00 | 0.00 | 0.00 | 73 | 1007.5 |
| 20260509235928 | 87 | 268 | 0.0 | 0.0 | 0.00 | 0.00 | 0.00 | 73 | 1007.5 |
| 20260509235427 | 87 | 268 | 0.0 | 0.0 | 0.00 | 0.00 | 0.00 | 71 | 1007.5 |
| 20260509234927 | 87 | 268 | 0.0 | 0.0 | 0.00 | 0.00 | 0.00 | 72 | 1007.5 |
| 20260509234427 | 87 | 268 | 0.0 | 0.0 | 0.00 | 0.00 | 0.00 | 70 | 1007.4 |
| 20260509233927 | 88 | 268 | 0.0 | 0.0 | 0.00 | 0.00 | 0.00 | 69 | 1007.4 |
| 20260509233431 | 88 | 268 | 0.0 | 0.0 | 0.00 | 0.00 | 0.00 | 68 | 1007.6 |
| 20260509232928 | 88 | 268 | 0.0 | 0.0 | 0.00 | 0.00 | 0.00 | 67 | 1007.5 |
| 20260509232427 | 89 | 268 | 0.0 | 0.0 | 0.00 | 0.00 | 0.00 | 68 | 1007.2 |
| 20260509231927 | 89 | 268 | 0.0 | 0.0 | 0.00 | 0.00 | 0.00 | 66 | 1007.5 |
| 20260509231427 | 89 | 268 | 0.0 | 0.0 | 0.00 | 0.00 | 0.00 | 64 | 1007.5 |
| 20260509230927 | 90 | 268 | 0.0 | 0.0 | 0.00 | 0.00 | 0.00 | 63 | 1007.4 |
| 20260509230430 | 90 | 268 | 0.0 | 0.0 | 0.00 | 0.00 | 0.00 | 64 | 1007.4 |
| 20260509225928 | 90 | 268 | 0.0 | 0.0 | 0.00 | 0.00 | 0.00 | 63 | 1007.2 |
| 20260509225427 | 90 | 268 | 0.0 | 0.0 | 0.00 | 0.00 | 0.00 | 61 | 1007.3 |
| 20260509224930 | 91 | 268 | 0.0 | 0.0 | 0.00 | 0.00 | 0.00 | 60 | 1007.2 |
| 20260509224430 | 91 | 268 | 0.0 | 0.0 | 0.00 | 0.00 | 0.00 | 59 | 1007.3 |
| 20260509223930 | 91 | 268 | 0.0 | 1.0 | 0.00 | 0.00 | 0.00 | 58 | 1007.2 |
| 20260509223430 | 91 | 268 | 0.0 | 0.0 | 0.00 | 0.00 | 0.00 | 57 | 1007.3 |
| 20260509222928 | 91 | 268 | 0.0 | 1.0 | 0.00 | 0.00 | 0.00 | 57 | 1007.2 |
| 20260509222427 | 91 | 268 | 0.0 | 0.0 | 0.00 | 0.00 | 0.00 | 58 | 1007.0 |
| 20260509221927 | 92 | 268 | 0.0 | 1.0 | 0.00 | 0.00 | 0.00 | 56 | 1007.1 |
| 20260509221427 | 91 | 268 | 0.0 | 0.0 | 0.00 | 0.00 | 0.00 | 59 | 1007.1 |
| 20260509220927 | 91 | 268 | 0.0 | 0.0 | 0.00 | 0.00 | 0.00 | 61 | 1007.1 |
| 20260509220427 | 90 | 268 | 0.0 | 0.0 | 0.00 | 0.00 | 0.00 | 62 | 1007.0 |
| 20260509215928 | 90 | 268 | 0.0 | 0.0 | 0.00 | 0.00 | 0.00 | 62 | 1007.1 |
| 20260509215427 | 89 | 268 | 0.0 | 0.0 | 0.00 | 0.00 | 0.00 | 61 | 1007.0 |
| 20260509214927 | 89 | 268 | 0.0 | 0.0 | 0.00 | 0.00 | 0.00 | 62 | 1006.9 |
| 20260509214427 | 89 | 268 | 0.0 | 1.0 | 0.00 | 0.00 | 0.00 | 62 | 1007.2 |
| 20260509213927 | 89 | 268 | 0.0 | 0.0 | 0.00 | 0.00 | 0.00 | 62 | 1007.2 |
| 20260509213427 | 89 | 268 | 0.0 | 0.0 | 0.00 | 0.00 | 0.00 | 63 | 1007.1 |
| 20260509212928 | 89 | 268 | 0.0 | 2.0 | 0.00 | 0.00 | 0.00 | 62 | 1007.1 |
| 20260509212427 | 90 | 267 | 1.0 | 2.0 | 0.00 | 0.00 | 0.00 | 62 | 1007.2 |
| 20260509211927 | 90 | 267 | 0.0 | 1.0 | 0.00 | 0.00 | 0.00 | 63 | 1007.1 |
| 20260509211427 | 89 | 267 | 0.0 | 1.0 | 0.00 | 0.00 | 0.00 | 63 | 1007.2 |
| 20260509210927 | 89 | 268 | 0.0 | 2.0 | 0.00 | 0.00 | 0.00 | 64 | 1007.2 |
| 20260509210427 | 89 | 244 | 0.0 | 2.0 | 0.00 | 0.00 | 0.00 | 64 | 1007.3 |
| 20260509205928 | 89 | 227 | 0.0 | 2.0 | 0.00 | 0.00 | 0.00 | 64 | 1007.5 |
| 20260509205427 | 89 | 224 | 0.0 | 1.0 | 0.00 | 0.00 | 0.00 | 65 | 1007.5 |
| 20260509204927 | 89 | 224 | 0.0 | 2.0 | 0.00 | 0.00 | 0.00 | 63 | 1007.6 |
| 20260509204427 | 89 | 223 | 1.0 | 2.0 | 0.00 | 0.00 | 0.00 | 64 | 1007.7 |
| 20260509203927 | 89 | 227 | 0.0 | 1.0 | 0.00 | 0.00 | 0.00 | 63 | 1007.7 |
| 20260509203428 | 90 | 227 | 1.0 | 1.0 | 0.00 | 0.00 | 0.00 | 64 | 1008.0 |
| 20260509202928 | 90 | 227 | 0.0 | 1.0 | 0.00 | 0.00 | 0.00 | 62 | 1008.0 |
| 20260509202427 | 90 | 227 | 0.0 | 0.0 | 0.00 | 0.00 | 0.00 | 65 | 1008.0 |
| 20260509201927 | 90 | 227 | 0.0 | 0.0 | 0.00 | 0.00 | 0.00 | 64 | 1008.1 |
| 20260509201427 | 90 | 227 | 0.0 | 1.0 | 0.00 | 0.00 | 0.00 | 64 | 1008.1 |
| 20260509200927 | 90 | 227 | 0.0 | 0.0 | 0.00 | 0.00 | 0.00 | 63 | 1008.1 |
| 20260509200427 | 90 | 227 | 0.0 | 1.0 | 0.00 | 0.00 | 0.00 | 64 | 1008.2 |
| 20260509195928 | 89 | 227 | 0.0 | 1.0 | 0.00 | 0.00 | 0.00 | 65 | 1008.3 |
| 20260509195427 | 89 | 227 | 0.0 | 2.0 | 0.00 | 0.00 | 0.00 | 64 | 1008.3 |
| 20260509194927 | 89 | 186 | 1.0 | 2.0 | 0.00 | 0.00 | 0.00 | 64 | 1008.2 |
| 20260509194430 | 89 | 269 | 1.0 | 2.0 | 0.00 | 0.00 | 0.00 | 64 | 1008.3 |
| 20260509193927 | 89 | 269 | 0.0 | 2.0 | 0.00 | 0.00 | 0.00 | 65 | 1008.4 |
| 20260509193427 | 89 | 269 | 0.0 | 3.0 | 0.00 | 0.00 | 0.00 | 64 | 1008.5 |
| 20260509192928 | 89 | 259 | 1.0 | 1.0 | 0.00 | 0.00 | 0.00 | 66 | 1008.5 |
| 20260509192427 | 89 | 259 | 0.0 | 2.0 | 0.00 | 0.00 | 0.00 | 66 | 1008.7 |
| 20260509191927 | 88 | 259 | 0.0 | 1.0 | 0.00 | 0.00 | 0.00 | 67 | 1008.8 |
| 20260509191430 | 88 | 259 | 0.0 | 3.0 | 0.00 | 0.00 | 0.00 | 68 | 1008.8 |
| 20260509190927 | 88 | 259 | 1.0 | 1.0 | 0.00 | 0.00 | 0.00 | 67 | 1008.7 |
| 20260509190427 | 87 | 253 | 0.0 | 2.0 | 0.00 | 0.00 | 0.00 | 67 | 1008.7 |
| 20260509185928 | 87 | 253 | 1.0 | 2.0 | 0.00 | 0.00 | 0.00 | 70 | 1008.8 |
| 20260509185427 | 87 | 253 | 2.0 | 1.0 | 0.00 | 0.00 | 0.00 | 70 | 1008.8 |
| 20260509184927 | 86 | 253 | 0.0 | 1.0 | 0.00 | 0.00 | 0.00 | 70 | 1008.9 |
| 20260509184427 | 86 | 253 | 0.0 | 0.0 | 0.00 | 0.00 | 0.00 | 70 | 1009.0 |
| 20260509183930 | 86 | 253 | 0.0 | 1.0 | 0.00 | 0.00 | 0.00 | 70 | 1009.2 |
| 20260509183431 | 86 | 253 | 1.0 | 2.0 | 0.00 | 0.00 | 0.00 | 69 | 1009.2 |
| 20260509182931 | 86 | 292 | 1.0 | 3.0 | 0.00 | 0.00 | 0.00 | 71 | 1009.1 |
| 20260509182427 | 86 | 295 | 2.0 | 3.0 | 0.00 | 0.00 | 0.00 | 71 | 1009.3 |
| 20260509181927 | 86 | 258 | 1.0 | 2.0 | 0.00 | 0.00 | 0.00 | 71 | 1009.4 |
| 20260509181427 | 85 | 253 | 0.0 | 2.0 | 0.00 | 0.00 | 0.00 | 71 | 1009.6 |
| 20260509180930 | 85 | 253 | 0.0 | 2.0 | 0.00 | 0.00 | 0.00 | 71 | 1009.7 |
| 20260509180427 | 85 | 252 | 1.0 | 2.0 | 0.00 | 0.00 | 0.00 | 72 | 1009.7 |
| 20260509175928 | 85 | 259 | 0.0 | 2.0 | 0.00 | 0.00 | 0.00 | 72 | 1009.7 |
| 20260509175430 | 85 | 259 | 0.0 | 1.0 | 0.00 | 0.00 | 0.00 | 71 | 1009.8 |
| 20260509174930 | 85 | 259 | 0.0 | 3.0 | 0.00 | 0.00 | 0.00 | 71 | 1010.0 |
| 20260509174427 | 86 | 208 | 0.0 | 1.0 | 0.00 | 0.00 | 0.00 | 72 | 1009.9 |
| 20260509173927 | 86 | 208 | 1.0 | 1.0 | 0.00 | 0.00 | 0.00 | 72 | 1009.9 |
| 20260509173427 | 86 | 207 | 1.0 | 2.0 | 0.00 | 0.00 | 0.00 | 74 | 1009.8 |
| 20260509172928 | 85 | 212 | 1.0 | 2.0 | 0.00 | 0.00 | 0.00 | 75 | 1009.7 |
| 20260509172427 | 85 | 277 | 0.0 | 3.0 | 0.00 | 0.00 | 0.00 | 77 | 1009.6 |
| 20260509171930 | 84 | 194 | 0.0 | 2.0 | 0.00 | 0.00 | 0.00 | 78 | 1009.7 |
| 20260509171427 | 83 | 279 | 0.0 | 1.0 | 0.00 | 0.00 | 0.00 | 79 | 1009.6 |
| 20260509170927 | 83 | 292 | 0.0 | 2.0 | 0.00 | 0.00 | 0.00 | 77 | 1009.7 |
| 20260509170430 | 82 | 276 | 0.0 | 2.0 | 0.00 | 0.00 | 0.00 | 81 | 1009.7 |
| 20260509165928 | 82 | 149 | 0.0 | 0.0 | 0.00 | 0.00 | 0.00 | 80 | 1009.7 |
| 20260509165427 | 81 | 149 | 0.0 | 0.0 | 0.00 | 0.00 | 0.00 | 84 | 1009.7 |
| 20260509164927 | 80 | 149 | 0.0 | 0.0 | 0.00 | 0.00 | 0.00 | 85 | 1009.7 |
| 20260509164427 | 80 | 149 | 0.0 | 0.0 | 0.00 | 0.00 | 0.00 | 86 | 1009.7 |
| 20260509163930 | 79 | 149 | 0.0 | 0.0 | 0.00 | 0.00 | 0.00 | 85 | 1009.9 |
| 20260509163427 | 79 | 149 | 0.0 | 0.0 | 0.00 | 0.00 | 0.00 | 86 | 1009.9 |
| 20260509162928 | 79 | 149 | 0.0 | 0.0 | 0.00 | 0.00 | 0.00 | 87 | 1010.0 |
| 20260509162427 | 79 | 149 | 0.0 | 0.0 | 0.00 | 0.00 | 0.00 | 86 | 1010.0 |
| 20260509161927 | 79 | 149 | 0.0 | 0.0 | 0.00 | 0.00 | 0.00 | 86 | 1010.1 |
| 20260509161427 | 78 | 149 | 0.0 | 0.0 | 0.00 | 0.00 | 0.00 | 87 | 1010.0 |
| 20260509160928 | 78 | 149 | 0.0 | 0.0 | 0.00 | 0.00 | 0.00 | 88 | 1010.1 |
| 20260509160427 | 78 | 149 | 0.0 | 0.0 | 0.00 | 0.00 | 0.00 | 88 | 1010.1 |
| 20260509155930 | 78 | 149 | 0.0 | 0.0 | 0.00 | 0.00 | 0.00 | 88 | 1010.2 |
| 20260509155427 | 78 | 149 | 0.0 | 0.0 | 0.00 | 0.00 | 0.00 | 89 | 1010.2 |
| 20260509154927 | 78 | 149 | 0.0 | 0.0 | 0.00 | 0.00 | 0.00 | 88 | 1010.3 |
| 20260509154427 | 78 | 149 | 0.0 | 0.0 | 0.00 | 0.00 | 0.00 | 89 | 1010.4 |
| 20260509153927 | 78 | 149 | 0.0 | 0.0 | 0.00 | 0.00 | 0.00 | 89 | 1010.4 |
| 20260509153428 | 78 | 149 | 0.0 | 0.0 | 0.00 | 0.00 | 0.00 | 89 | 1010.5 |
| 20260509152927 | 78 | 149 | 0.0 | 0.0 | 0.00 | 0.00 | 0.00 | 89 | 1010.5 |
| 20260509152427 | 77 | 149 | 0.0 | 0.0 | 0.00 | 0.00 | 0.00 | 90 | 1010.3 |
| 20260509151930 | 77 | 149 | 0.0 | 0.0 | 0.00 | 0.00 | 0.00 | 90 | 1010.4 |
| 20260509151430 | 77 | 149 | 0.0 | 0.0 | 0.00 | 0.00 | 0.00 | 91 | 1010.3 |
| 20260509150931 | 77 | 149 | 0.0 | 0.0 | 0.00 | 0.00 | 0.00 | 91 | 1010.2 |
| 20260509150431 | 77 | 149 | 0.0 | 0.0 | 0.00 | 0.00 | 0.00 | 92 | 1010.2 |
| 20260509145928 | 77 | 149 | 0.0 | 0.0 | 0.00 | 0.00 | 0.00 | 93 | 1010.0 |
| 20260509145427 | 76 | 149 | 0.0 | 0.0 | 0.00 | 0.00 | 0.00 | 93 | 1009.9 |
| 20260509144927 | 76 | 149 | 0.0 | 0.0 | 0.00 | 0.00 | 0.00 | 94 | 1009.8 |
| 20260509144430 | 76 | 149 | 0.0 | 0.0 | 0.00 | 0.00 | 0.00 | 94 | 1009.6 |
| 20260509143927 | 76 | 149 | 0.0 | 0.0 | 0.00 | 0.00 | 0.00 | 93 | 1009.8 |
| 20260509143427 | 76 | 149 | 0.0 | 0.0 | 0.00 | 0.00 | 0.00 | 94 | 1009.7 |
| 20260509142928 | 76 | 149 | 0.0 | 0.0 | 0.00 | 0.00 | 0.00 | 94 | 1009.9 |
| 20260509142430 | 76 | 149 | 0.0 | 0.0 | 0.00 | 0.00 | 0.00 | 94 | 1009.8 |
| 20260509141927 | 76 | 149 | 0.0 | 0.0 | 0.00 | 0.00 | 0.00 | 95 | 1009.7 |
| 20260509141427 | 76 | 149 | 0.0 | 0.0 | 0.00 | 0.00 | 0.00 | 95 | 1009.4 |
| 20260509140927 | 75 | 149 | 0.0 | 0.0 | 0.00 | 0.00 | 0.00 | 95 | 1009.3 |
| 20260509140427 | 75 | 149 | 0.0 | 0.0 | 0.00 | 0.00 | 0.00 | 95 | 1009.5 |
| 20260509135927 | 75 | 149 | 0.0 | 0.0 | 0.00 | 0.00 | 0.00 | 95 | 1009.6 |
| 20260509135431 | 75 | 149 | 0.0 | 0.0 | 0.00 | 0.00 | 0.00 | 95 | 1009.6 |
| 20260509134927 | 75 | 149 | 0.0 | 0.0 | 0.00 | 0.00 | 0.00 | 95 | 1009.8 |
| 20260509134427 | 75 | 149 | 0.0 | 0.0 | 0.00 | 0.00 | 0.00 | 95 | 1009.8 |
| 20260509133928 | 75 | 149 | 0.0 | 0.0 | 0.00 | 0.00 | 0.00 | 95 | 1009.9 |
| 20260509133427 | 75 | 149 | 0.0 | 0.0 | 0.00 | 0.00 | 0.00 | 95 | 1009.5 |
| 20260509132927 | 75 | 149 | 0.0 | 0.0 | 0.00 | 0.00 | 0.00 | 96 | 1010.1 |
| 20260509132427 | 75 | 149 | 0.0 | 0.0 | 0.00 | 0.00 | 0.00 | 96 | 1010.2 |
| 20260509131928 | 74 | 149 | 0.0 | 0.0 | 0.00 | 0.00 | 0.00 | 96 | 1010.3 |
| 20260509131427 | 74 | 149 | 0.0 | 0.0 | 0.00 | 0.00 | 0.00 | 96 | 1010.2 |
| 20260509130927 | 74 | 149 | 0.0 | 0.0 | 0.00 | 0.00 | 0.00 | 96 | 1010.3 |
| 20260509130427 | 74 | 149 | 0.0 | 0.0 | 0.00 | 0.00 | 0.00 | 96 | 1010.3 |
| 20260509125927 | 74 | 149 | 0.0 | 0.0 | 0.00 | 0.00 | 0.00 | 96 | 1010.3 |
| 20260509125427 | 74 | 149 | 0.0 | 0.0 | 0.00 | 0.00 | 0.00 | 96 | 1010.3 |
| 20260509124927 | 74 | 149 | 0.0 | 0.0 | 0.00 | 0.00 | 0.00 | 96 | 1010.3 |
| 20260509124431 | 74 | 149 | 0.0 | 0.0 | 0.00 | 0.00 | 0.00 | 96 | 1010.1 |
| 20260509123927 | 74 | 149 | 0.0 | 0.0 | 0.00 | 0.00 | 0.00 | 96 | 1010.0 |
| 20260509123427 | 74 | 149 | 0.0 | 0.0 | 0.00 | 0.00 | 0.00 | 96 | 1010.1 |
| 20260509122927 | 74 | 149 | 0.0 | 0.0 | 0.00 | 0.00 | 0.00 | 96 | 1010.1 |
| 20260509122427 | 74 | 149 | 0.0 | 0.0 | 0.00 | 0.00 | 0.00 | 96 | 1010.0 |
| 20260509121927 | 74 | 149 | 0.0 | 0.0 | 0.00 | 0.00 | 0.00 | 95 | 1009.7 |
| 20260509121427 | 74 | 149 | 0.0 | 0.0 | 0.00 | 0.00 | 0.00 | 95 | 1009.5 |
| 20260509120931 | 74 | 149 | 0.0 | 0.0 | 0.00 | 0.00 | 0.00 | 95 | 1009.5 |
| 20260509120427 | 74 | 149 | 0.0 | 0.0 | 0.00 | 0.00 | 0.00 | 95 | 1009.4 |
| 20260509115927 | 74 | 149 | 0.0 | 0.0 | 0.00 | 0.00 | 0.00 | 95 | 1009.3 |
| 20260509115430 | 74 | 149 | 0.0 | 0.0 | 0.00 | 0.00 | 0.00 | 95 | 1009.3 |
| 20260509114927 | 74 | 149 | 0.0 | 0.0 | 0.00 | 0.00 | 0.00 | 95 | 1009.5 |
| 20260509114430 | 74 | 149 | 0.0 | 0.0 | 0.00 | 0.00 | 0.00 | 95 | 1009.6 |
| 20260509113927 | 74 | 149 | 0.0 | 0.0 | 0.00 | 0.00 | 0.00 | 95 | 1009.8 |
| 20260509113428 | 74 | 149 | 0.0 | 0.0 | 0.00 | 0.00 | 0.00 | 95 | 1009.8 |
| 20260509112927 | 74 | 149 | 0.0 | 0.0 | 0.00 | 0.00 | 0.00 | 95 | 1009.7 |
| 20260509112430 | 74 | 149 | 0.0 | 0.0 | 0.00 | 0.00 | 0.00 | 95 | 1009.9 |
| 20260509111927 | 74 | 149 | 0.0 | 0.0 | 0.00 | 0.00 | 0.00 | 95 | 1009.9 |
| 20260509111427 | 74 | 149 | 0.0 | 0.0 | 0.00 | 0.00 | 0.00 | 95 | 1009.9 |
| 20260509110927 | 74 | 149 | 0.0 | 0.0 | 0.00 | 0.00 | 0.00 | 95 | 1009.9 |
| 20260509110427 | 73 | 149 | 0.0 | 0.0 | 0.00 | 0.00 | 0.00 | 95 | 1010.0 |
| 20260509105928 | 73 | 149 | 0.0 | 0.0 | 0.00 | 0.00 | 0.00 | 95 | 1009.9 |
| 20260509105427 | 73 | 149 | 0.0 | 0.0 | 0.00 | 0.00 | 0.00 | 95 | 1009.8 |
| 20260509104927 | 73 | 149 | 0.0 | 0.0 | 0.00 | 0.00 | 0.00 | 95 | 1009.9 |
| 20260509104427 | 73 | 149 | 0.0 | 0.0 | 0.00 | 0.00 | 0.00 | 95 | 1009.8 |
| 20260509103927 | 73 | 149 | 0.0 | 0.0 | 0.00 | 0.00 | 0.00 | 95 | 1009.8 |
| 20260509103427 | 73 | 149 | 0.0 | 0.0 | 0.00 | 0.00 | 0.00 | 95 | 1009.7 |
| 20260509102930 | 73 | 149 | 0.0 | 0.0 | 0.00 | 0.00 | 0.00 | 95 | 1009.5 |
| 20260509102428 | 74 | 149 | 0.0 | 0.0 | 0.00 | 0.00 | 0.00 | 95 | 1009.4 |
| 20260509101927 | 74 | 149 | 0.0 | 0.0 | 0.00 | 0.00 | 0.00 | 94 | 1009.3 |
| 20260509101427 | 74 | 149 | 0.0 | 0.0 | 0.00 | 0.00 | 0.00 | 94 | 1008.9 |
| 20260509100927 | 74 | 149 | 0.0 | 0.0 | 0.00 | 0.00 | 0.00 | 94 | 1008.8 |
| 20260509100427 | 74 | 149 | 0.0 | 0.0 | 0.00 | 0.00 | 0.00 | 94 | 1008.7 |
| 20260509095930 | 74 | 149 | 0.0 | 0.0 | 0.00 | 0.00 | 0.00 | 94 | 1008.5 |
| 20260509095427 | 74 | 149 | 0.0 | 0.0 | 0.00 | 0.00 | 0.00 | 94 | 1008.6 |
| 20260509094928 | 74 | 149 | 0.0 | 0.0 | 0.00 | 0.00 | 0.00 | 94 | 1008.6 |
| 20260509094430 | 74 | 149 | 0.0 | 0.0 | 0.00 | 0.00 | 0.00 | 94 | 1008.7 |
| 20260509093927 | 74 | 149 | 0.0 | 0.0 | 0.00 | 0.00 | 0.00 | 94 | 1008.9 |
| 20260509093427 | 74 | 149 | 0.0 | 0.0 | 0.00 | 0.00 | 0.00 | 94 | 1009.3 |
| 20260509092930 | 74 | 149 | 0.0 | 0.0 | 0.00 | 0.00 | 0.00 | 94 | 1009.3 |
| 20260509092427 | 74 | 149 | 0.0 | 0.0 | 0.00 | 0.00 | 0.00 | 94 | 1009.3 |
| 20260509091930 | 74 | 149 | 0.0 | 0.0 | 0.00 | 0.00 | 0.00 | 94 | 1009.4 |
| 20260509091428 | 74 | 149 | 0.0 | 0.0 | 0.00 | 0.00 | 0.00 | 94 | 1009.5 |
| 20260509090927 | 74 | 149 | 0.0 | 0.0 | 0.00 | 0.00 | 0.00 | 94 | 1009.3 |
| 20260509090427 | 74 | 149 | 0.0 | 0.0 | 0.00 | 0.00 | 0.00 | 94 | 1009.4 |
| 20260509085927 | 74 | 149 | 0.0 | 0.0 | 0.00 | 0.00 | 0.00 | 94 | 1009.3 |
| 20260509085427 | 74 | 149 | 0.0 | 0.0 | 0.00 | 0.00 | 0.00 | 94 | 1009.3 |
| 20260509084928 | 74 | 149 | 0.0 | 0.0 | 0.00 | 0.00 | 0.00 | 94 | 1009.5 |
| 20260509084430 | 74 | 149 | 0.0 | 0.0 | 0.00 | 0.00 | 0.00 | 94 | 1009.4 |
| 20260509083931 | 74 | 149 | 0.0 | 0.0 | 0.00 | 0.00 | 0.00 | 94 | 1009.5 |
| 20260509083427 | 74 | 149 | 0.0 | 0.0 | 0.00 | 0.00 | 0.00 | 94 | 1009.4 |